Date_and_time,latitude,longitude,wind_speed,RelWindDirFrom,WindDirFrom,air_pressure,air_temperature,relative_humidity,Temp,platform_speed_wrt_ground,air_pressure_at_mean_sea_level,platform_orientation
2018-10-03 23:50,50.6304533333333,-96.9807666666667,9.4,16.0,293,984.59,-0.1,101,7.10,0.0,1012.37,360.0
2018-10-04 00:00,50.6304533333333,-96.9807666666667,8.5,13.9,289,984.84,-0.1,101,7.12,0.0,1012.63,38.0
2018-10-04 00:00,50.6304533333333,-96.980765,7.1,7.2,275,985.07,-0.1,101,7.12,0.0,1012.87,0.0
2018-10-04 00:10,50.6304533333333,-96.980765,7.5,12.7,288,985.07,-0.1,101,7.13,0.0,1012.88,0.0
2018-10-04 00:20,50.6304533333333,-96.980765,7.3,14.7,293,985.24,-0.1,101,7.13,0.0,1013.05,0.0
2018-10-04 00:30,50.6304483333333,-96.9807583333333,6.2,10.3,286,985.41,-0.1,101,7.12,0.0,1013.22,0.0
2018-10-04 00:40,50.6304483333333,-96.980755,6.2,9.9,281,985.67,-0.1,101,7.07,0.0,1013.49,0.0
2018-10-04 00:50,50.630455,-96.98076,6.9,11.0,273,985.89,-0.2,101,7.06,0.0,1013.72,0.0
2018-10-04 01:00,50.630455,-96.98076,7.8,11.0,270,986.00,-0.2,101,7.04,0.0,1013.83,90.0
2018-10-04 01:10,50.630455,-96.98076,8.0,14.5,269,986.21,-0.3,101,7.03,0.0,1014.06,90.0
2018-10-04 01:20,50.6304566666667,-96.9807616666667,8.0,13.6,268,986.46,-0.3,101,7.02,0.0,1014.31,90.0
2018-10-04 01:30,50.630455,-96.9807633333333,8.5,12.3,266,986.73,-0.4,101,7.00,0.0,1014.58,90.0
2018-10-04 01:40,50.6304566666667,-96.980765,7.8,13.8,272,986.85,-0.4,101,6.98,0.0,1014.71,90.0
2018-10-04 01:50,50.630455,-96.9807633333333,8.2,12.8,271,987.03,-0.4,101,6.97,0.0,1014.89,90.0
2018-10-04 02:00,50.630455,-96.9807633333333,7.7,12.4,267,987.25,-0.3,101,6.94,0.0,1015.12,0.0
2018-10-04 02:10,50.630455,-96.9807633333333,7.2,11.2,266,987.43,-0.4,101,6.94,0.0,1015.31,0.0
2018-10-04 02:20,50.630455,-96.980765,7.9,11.4,262,987.68,-0.4,101,6.93,0.0,1015.56,0.0
2018-10-04 02:30,50.6304533333333,-96.980765,7.5,10.4,261,988.03,-0.4,101,6.90,0.0,1015.92,0.0
2018-10-04 02:40,50.6304533333333,-96.980765,6.4,10.5,263,988.13,-0.4,101,6.92,0.0,1016.03,0.0
2018-10-04 02:50,50.6304466666667,-96.9807783333333,6.1,9.1,257,988.26,-0.5,100,6.92,0.0,1016.17,0.0
2018-10-04 03:00,50.6304533333333,-96.9807766666667,6.7,10.4,256,988.36,-0.6,100,6.92,0.0,1016.28,270.0
2018-10-04 03:10,50.6304566666667,-96.980775,5.8,8.9,251,988.58,-0.7,100,6.89,0.0,1016.52,270.0
2018-10-04 03:20,50.6304383333333,-96.9807883333333,5.6,8.2,251,988.80,-0.7,100,6.89,0.0,1016.75,270.0
2018-10-04 03:30,50.6304466666667,-96.9807833333333,5.8,8.9,254,988.96,-0.8,100,6.87,0.0,1016.91,270.0
2018-10-04 03:40,50.6304416666667,-96.980775,5.4,8.6,255,989.06,-0.8,100,6.85,0.0,1017.02,270.0
2018-10-04 03:50,50.63044,-96.9807716666667,5.4,8.1,251,989.18,-0.8,100,6.84,0.0,1017.14,270.0
2018-10-04 04:00,50.63044,-96.9807716666667,5.4,8.8,249,989.34,-0.7,100,6.85,0.0,1017.31,228.3
2018-10-04 04:10,50.6304433333333,-96.9807683333333,5.0,8.1,255,989.41,-0.8,100,6.85,0.0,1017.37,228.3
2018-10-04 04:20,50.630445,-96.98077,5.1,8.2,259,989.49,-0.7,100,6.85,0.0,1017.45,228.3
2018-10-04 04:30,50.6304433333333,-96.9807666666667,5.8,8.8,258,989.64,-0.7,100,6.86,0.0,1017.62,228.3
2018-10-04 04:40,50.6304433333333,-96.9807666666667,6.1,8.8,254,989.76,-0.7,100,6.90,0.0,1017.74,228.3
2018-10-04 04:50,50.6304416666667,-96.9807666666667,6.1,9.6,261,989.80,-0.7,100,6.90,0.0,1017.78,228.3
2018-10-04 05:00,50.6304416666667,-96.9807666666667,5.6,7.8,254,989.91,-0.6,99,6.89,0.0,1017.90,360.0
2018-10-04 05:10,50.6304433333333,-96.9807716666667,5.7,8.6,266,989.90,-0.6,99,6.81,0.0,1017.88,360.0
2018-10-04 05:20,50.6304333333333,-96.9807833333333,5.6,8.6,272,989.86,-0.4,99,6.76,0.0,1017.84,360.0
2018-10-04 05:30,50.63044,-96.9807816666667,6.4,10.4,268,990.03,-0.3,99,6.75,0.0,1018.01,360.0
2018-10-04 05:40,50.630445,-96.9807766666667,5.6,9.3,275,990.01,-0.2,99,6.75,0.0,1017.99,360.0
2018-10-04 05:50,50.63044,-96.98077,6.8,10.2,278,990.02,-0.2,99,6.75,0.0,1017.99,360.0
2018-10-04 06:00,50.63044,-96.9807733333333,5.7,8.6,276,990.21,-0.2,99,6.75,0.0,1018.18,142.0
2018-10-04 06:10,50.6304383333333,-96.980775,5.1,7.6,279,990.38,-0.2,99,6.72,0.0,1018.36,142.0
2018-10-04 06:20,50.6304366666667,-96.980775,5.0,9.3,277,990.51,-0.3,99,6.72,0.0,1018.51,142.0
2018-10-04 06:30,50.63045,-96.980785,5.0,8.9,279,990.68,-0.4,99,6.68,0.0,1018.68,142.0
2018-10-04 06:40,50.6304483333333,-96.9807933333333,5.5,9.2,287,990.81,-0.6,98,6.67,0.0,1018.82,142.0
2018-10-04 06:50,50.63043,-96.98076,5.1,9.1,280,991.02,-0.7,97,6.68,0.0,1019.04,142.0
2018-10-04 07:00,50.6304416666667,-96.98077,6.1,8.7,271,991.28,-0.9,95,6.68,0.0,1019.32,90.0
2018-10-04 07:10,50.63044,-96.980775,5.7,9.6,282,991.43,-1.0,96,6.63,0.0,1019.46,90.0
2018-10-04 07:20,50.6304383333333,-96.980775,5.5,9.1,282,991.61,-1.0,95,6.63,0.0,1019.64,90.0
2018-10-04 07:30,50.6304416666667,-96.9807766666667,5.3,8.0,276,991.86,-1.0,94,6.62,0.0,1019.90,90.0
2018-10-04 07:40,50.6304433333333,-96.9807766666667,5.1,8.7,284,991.91,-1.1,94,6.62,0.0,1019.96,90.0
2018-10-04 07:50,50.63044,-96.980775,5.2,8.5,272,992.13,-1.1,92,6.60,0.0,1020.18,90.0
2018-10-04 08:00,50.63044,-96.980775,4.6,6.8,269,992.34,-1.2,92,6.61,0.0,1020.40,270.0
2018-10-04 08:10,50.6304383333333,-96.9807733333333,4.8,7.7,257,992.56,-1.4,92,6.63,0.0,1020.65,270.0
2018-10-04 08:20,50.6304316666667,-96.980815,4.7,7.1,257,992.70,-1.6,92,6.63,0.0,1020.81,270.0
2018-10-04 08:30,50.63044,-96.9807883333333,5.0,7.5,244,992.86,-1.9,93,6.59,0.0,1020.99,270.0
2018-10-04 08:40,50.6304416666667,-96.9807816666667,4.6,6.5,249,992.97,-2.2,94,6.57,0.0,1021.13,270.0
2018-10-04 08:50,50.63044,-96.9808083333333,4.9,7.1,246,993.23,-2.3,94,6.57,0.0,1021.41,270.0
2018-10-04 09:00,50.6304383333333,-96.9807716666667,5.2,7.3,247,993.40,-2.4,94,6.58,0.0,1021.60,0.0
2018-10-04 09:10,50.6304366666667,-96.9807666666667,5.6,7.5,245,993.57,-2.6,95,6.61,0.0,1021.78,0.0
2018-10-04 09:20,50.6304366666667,-96.9807716666667,5.0,7.5,257,993.69,-2.8,96,6.61,0.0,1021.92,0.0
2018-10-04 09:30,50.6304583333333,-96.9808,5.0,9.1,268,993.73,-2.6,95,6.60,0.0,1021.96,0.0
2018-10-04 09:40,50.6304383333333,-96.9807516666667,5.0,7.7,270,993.92,-2.6,94,6.59,0.0,1022.14,0.0
2018-10-04 09:50,50.63044,-96.9807616666667,5.4,7.9,266,994.15,-2.5,90,6.57,0.0,1022.38,0.0
2018-10-04 10:00,50.6304416666667,-96.98076,5.4,7.7,267,994.33,-2.5,88,6.56,0.0,1022.58,90.0
2018-10-04 10:10,50.6304683333333,-96.9807766666667,5.4,8.7,273,994.37,-2.5,88,6.56,0.0,1022.64,90.0
2018-10-04 10:20,50.63043,-96.9807583333333,5.1,8.1,269,994.49,-2.6,87,6.55,0.0,1022.78,90.0
2018-10-04 10:30,50.6304383333333,-96.980745,4.6,7.2,264,994.65,-2.8,87,6.51,0.0,1022.96,90.0
2018-10-04 10:40,50.6304466666667,-96.98076,4.6,6.6,257,994.74,-3.1,89,6.50,0.0,1023.08,90.0
2018-10-04 10:50,50.63045,-96.9807583333333,4.7,7.5,255,994.86,-3.4,90,6.49,0.0,1023.23,90.0
2018-10-04 11:00,50.6304483333333,-96.9807583333333,5.3,8.1,251,995.06,-3.7,92,6.45,0.0,1023.46,60.8
2018-10-04 11:10,50.6304483333333,-96.98076,5.9,9.0,260,995.19,-3.7,91,6.42,0.0,1023.60,60.8
2018-10-04 11:20,50.6304483333333,-96.980765,6.0,9.3,264,995.29,-3.7,90,6.45,0.0,1023.70,60.8
2018-10-04 11:30,50.6304466666667,-96.9807766666667,5.6,8.6,258,995.47,-3.9,90,6.45,0.0,1023.88,60.8
2018-10-04 11:40,50.6304583333333,-96.98075,5.5,7.7,245,995.85,-4.1,92,6.43,0.0,1024.29,60.8
2018-10-04 11:50,50.6304466666667,-96.98078,5.9,9.2,260,995.94,-4.1,92,6.41,0.0,1024.38,60.8
2018-10-04 12:00,50.6304366666667,-96.9807633333333,5.0,8.1,276,996.00,-3.9,92,6.39,0.0,1024.43,167.4
2018-10-04 12:10,50.6304283333333,-96.9807583333333,5.3,8.0,278,996.14,-3.9,92,6.37,0.0,1024.58,167.4
2018-10-04 12:20,50.6304266666667,-96.9807366666667,5.2,8.5,277,996.21,-3.8,92,6.37,0.0,1024.66,167.4
2018-10-04 12:30,50.6304383333333,-96.9807516666667,4.2,6.5,277,996.31,-3.9,93,6.38,0.0,1024.78,167.4
2018-10-04 12:40,50.63044,-96.98076,4.6,7.1,275,996.44,-3.9,94,6.37,0.0,1024.92,167.4
2018-10-04 12:50,50.63044,-96.9807616666667,4.8,6.9,266,996.59,-3.8,94,6.33,0.0,1025.10,167.4
2018-10-04 13:00,50.63044,-96.9807616666667,4.5,6.9,284,996.52,-3.8,94,6.30,0.0,1025.03,90.0
2018-10-04 13:10,50.6304416666667,-96.980765,5.1,7.3,292,996.42,-3.7,94,6.30,0.0,1024.92,90.0
2018-10-04 13:20,50.630445,-96.9807683333333,5.5,7.9,291,996.49,-3.5,92,6.27,0.0,1024.99,90.0
2018-10-04 13:30,50.630445,-96.9807716666667,4.9,7.7,275,996.80,-3.4,92,6.25,0.0,1025.31,90.0
2018-10-04 13:40,50.6304516666667,-96.9807783333333,5.0,7.5,269,997.08,-3.3,91,6.24,0.0,1025.60,90.0
2018-10-04 13:50,50.6301933333333,-96.98082,5.0,7.4,274,997.22,-3.1,90,6.23,0.1,1025.72,90.0
2018-10-04 14:00,50.6273516666667,-96.95571,1.3,8.1,310,997.35,-2.3,89,6.31,5.8,1025.81,101.0
2018-10-04 14:10,50.6320233333333,-96.92006,6.0,13.9,333,997.40,-1.8,88,7.17,8.3,1025.83,101.0
2018-10-04 14:20,50.6280366666667,-96.8723233333333,6.0,11.2,350,997.51,-0.9,85,7.88,11.0,1025.89,101.0
2018-10-04 14:30,50.65389,-96.8478833333333,18.3,22.0,339,997.28,-0.2,82,8.29,10.9,1025.62,101.0
2018-10-04 14:40,50.680835,-96.8249783333333,17.7,21.0,336,997.57,0.2,79,8.55,11.0,1025.90,101.0
2018-10-04 14:50,50.70767,-96.802045,17.9,20.4,335,997.65,0.5,77,8.59,11.0,1025.96,101.0
2018-10-04 15:00,50.7343716666667,-96.7791133333333,18.4,21.8,334,997.74,0.7,75,8.68,10.9,1026.04,50.8
2018-10-04 15:10,50.7622866666667,-96.7613516666667,19.0,22.6,330,997.75,0.7,74,8.79,10.8,1026.03,50.8
2018-10-04 15:20,50.7917566666667,-96.7501466666667,19.0,21.8,326,997.85,0.5,75,8.85,10.9,1026.14,50.8
2018-10-04 15:30,50.821475,-96.7407283333333,19.7,23.5,323,997.89,0.6,74,8.75,10.9,1026.18,50.8
2018-10-04 15:40,50.8510183333333,-96.729485,19.1,22.4,324,997.98,0.6,74,8.62,10.9,1026.26,50.8
2018-10-04 15:50,50.880625,-96.7178733333333,17.9,21.2,322,998.23,0.6,74,8.54,11.0,1026.47,50.8
2018-10-04 16:00,50.9104416666667,-96.7065716666667,17.2,20.2,319,998.33,0.6,74,8.47,11.0,1026.55,31.7
2018-10-04 16:10,50.9402916666667,-96.694675,17.0,20.1,321,998.30,0.5,76,8.32,11.1,1026.48,31.7
2018-10-04 16:20,50.970215,-96.6825333333333,17.5,20.9,319,998.26,0.4,77,8.30,11.1,1026.40,31.7
2018-10-04 16:30,51.0004066666667,-96.6716816666667,16.2,19.5,318,998.24,0.4,77,8.78,11.1,1026.37,31.7
2018-10-04 16:40,51.0306433333333,-96.6607266666667,16.6,20.4,329,998.09,0.6,76,8.70,11.2,1026.19,31.7
2018-10-04 16:50,51.0607866666667,-96.6485016666667,16.7,20.1,332,998.02,0.6,76,8.63,11.2,1026.10,31.7
2018-10-04 17:00,51.09126,-96.6375316666667,16.6,21.1,334,997.86,0.8,74,8.65,11.2,1025.93,23.3
2018-10-04 17:10,51.104035,-96.6315166666667,12.0,16.8,310,998.24,1.1,70,8.62,4.8,1026.31,23.3
2018-10-04 17:20,51.111115,-96.627565,12.0,15.3,303,998.36,1.2,65,8.64,2.7,1026.42,23.3
2018-10-04 17:30,51.1185433333333,-96.625465,11.3,15.1,304,998.32,1.5,67,8.62,2.7,1026.38,23.3
2018-10-04 17:40,51.12678,-96.6229016666667,12.0,15.9,308,998.33,1.4,60,8.66,3.0,1026.38,23.3
2018-10-04 17:50,51.1330566666667,-96.6209883333333,12.6,16.4,317,998.34,1.6,56,8.65,2.3,1026.39,23.3
2018-10-04 18:00,51.1329816666667,-96.621085,10.5,13.9,309,998.44,1.8,56,8.60,0.0,1026.48,14.0
2018-10-04 18:10,51.1312116666667,-96.6310216666667,11.0,19.3,284,998.37,1.9,57,8.62,2.3,1026.41,14.0
2018-10-04 18:20,51.1276466666667,-96.6520483333333,12.3,20.2,282,998.25,1.8,57,8.59,4.9,1026.29,14.0
2018-10-04 18:30,51.1276933333333,-96.651795,6.9,10.9,291,998.40,2.0,57,8.56,0.1,1026.42,14.0
2018-10-04 18:40,51.127635,-96.651745,7.9,11.8,289,998.25,2.0,58,8.58,0.0,1026.27,14.0
2018-10-04 18:50,51.127645,-96.6517866666667,7.2,10.3,298,998.21,2.0,55,8.60,0.0,1026.22,14.0
2018-10-04 19:00,51.12764,-96.6517266666667,6.6,8.7,304,998.17,2.2,58,8.63,0.0,1026.15,9.0
2018-10-04 19:10,51.1275383333333,-96.6517183333333,8.0,11.4,316,997.99,2.2,56,8.64,0.0,1025.96,9.0
2018-10-04 19:20,51.127515,-96.6517483333333,7.1,11.4,321,997.93,2.2,56,8.66,0.0,1025.88,9.0
2018-10-04 19:30,51.1275633333333,-96.65172,5.8,10.0,314,997.94,2.4,55,8.68,0.0,1025.89,9.0
2018-10-04 19:40,51.1276616666667,-96.6517916666667,5.9,9.4,285,998.03,2.3,51,8.69,0.0,1025.98,9.0
2018-10-04 19:50,51.127525,-96.6517283333333,7.1,9.3,312,997.99,2.5,52,8.70,0.1,1025.91,9.0
2018-10-04 20:00,51.1275366666667,-96.6517433333333,5.5,7.3,307,998.03,2.6,53,8.70,0.0,1025.95,346.2
2018-10-04 20:10,51.1277,-96.651845,3.6,9.4,262,998.10,2.8,52,8.70,0.1,1026.02,346.2
2018-10-04 20:20,51.1277866666667,-96.6519416666667,6.2,9.6,220,998.08,2.6,52,8.70,0.0,1025.99,346.2
2018-10-04 20:30,51.1277383333333,-96.6518216666667,7.4,10.6,233,998.13,2.5,53,8.71,0.0,1026.05,346.2
2018-10-04 20:40,51.1277366666667,-96.6518283333333,5.6,7.7,264,998.13,2.7,52,8.69,0.0,1026.04,346.2
2018-10-04 20:50,51.1277433333333,-96.65185,7.3,9.9,241,997.92,2.8,51,8.69,0.0,1025.81,346.2
2018-10-04 21:00,51.1275983333333,-96.6520733333333,5.7,9.4,238,997.87,2.7,52,8.69,0.1,1025.76,254.5
2018-10-04 21:10,51.150255,-96.6325116666667,5.5,11.9,351,997.76,2.6,52,8.69,9.3,1025.66,254.5
2018-10-04 21:20,51.179495,-96.60675,6.7,10.2,1,997.72,2.7,50,8.69,12.0,1025.60,254.5
2018-10-04 21:30,51.210335,-96.60254,6.8,14.9,327,997.52,2.8,50,8.75,11.1,1025.39,254.5
2018-10-04 21:40,51.2399483333333,-96.6202233333333,10.1,14.5,304,997.31,2.7,52,8.65,11.4,1025.17,254.5
2018-10-04 21:50,51.2710966666667,-96.6323033333333,8.8,12.4,307,997.41,2.7,53,8.74,11.5,1025.26,254.5
2018-10-04 22:00,51.3015633333333,-96.6123716666667,5.2,7.8,17,997.53,2.8,55,8.93,11.9,1025.38,8.1
2018-10-04 22:10,51.3319366666667,-96.594325,4.0,6.5,343,997.41,2.9,54,8.87,11.7,1025.26,8.1
2018-10-04 22:20,51.3629016666667,-96.598105,6.7,11.2,304,997.16,2.6,55,8.88,11.2,1025.02,8.1
2018-10-04 22:30,51.39385,-96.61335,7.6,10.9,301,996.85,2.9,54,8.61,11.7,1024.69,8.1
2018-10-04 22:40,51.424745,-96.62702,8.9,13.2,317,996.47,3.0,52,8.41,11.5,1024.28,8.1
2018-10-04 22:50,51.4553416666667,-96.6419766666667,10.2,12.6,315,996.32,2.9,52,7.98,11.5,1024.14,8.1
2018-10-04 23:00,51.48607,-96.6570783333333,9.3,11.8,321,996.22,2.9,52,8.02,11.6,1024.03,359.4
2018-10-04 23:10,51.5172083333333,-96.6720833333333,8.8,10.7,333,996.03,2.9,54,8.47,11.7,1023.84,359.4
2018-10-04 23:20,51.5488033333333,-96.6876933333333,8.7,13.0,321,995.99,2.7,55,8.72,11.9,1023.79,359.4
2018-10-04 23:30,51.5807483333333,-96.702845,9.0,12.8,337,995.84,2.9,55,8.89,12.0,1023.64,359.4
